When you browse on this site, cookies collect data to enhance your experience and personalize the content and advertising you see.
Visit our Privacy Policy to learn more. By continuing to use the site, you agree to this use of cookies and data.
  • In Deutschland
  • Länderverzeichnis
  • Für 7 Tage
  • Wassertemperatur
  • Wetterkarte
  • Widgets
  • user-avatar
    Anmelden

    Stündliche Wetter Saidpur

    Heute, 21 Januar, Dienstag

    Zeit Temperatur Niederschläge Wind Luftdruck Luftfeuchtigkeit
    00:00 +16°C° 0 mm 2 m/S 761 mmHg 59%
    01:00 +16°C° 0 mm 2 m/S 760 mmHg 61%
    02:00 +15°C° 0 mm 2 m/S 760 mmHg 63%
    03:00 +15°C° 0 mm 2 m/S 760 mmHg 65%
    04:00 +14°C° 0 mm 2 m/S 760 mmHg 67%
    05:00 +14°C° 0 mm 2 m/S 760 mmHg 68%
    06:00 +13°C° 0 mm 2 m/S 760 mmHg 75%
    07:00 +14°C° 0 mm 2 m/S 761 mmHg 70%
    08:00 +15°C° 0 mm 2 m/S 762 mmHg 66%
    09:00 +17°C° 0 mm 2 m/S 762 mmHg 61%
    10:00 +18°C° 0 mm 2 m/S 762 mmHg 55%
    11:00 +20°C° 0 mm 2 m/S 762 mmHg 49%
    12:00 +23°C° 0 mm 2 m/S 762 mmHg 42%
    13:00 +23°C° 0 mm 2 m/S 761 mmHg 39%
    14:00 +24°C° 0 mm 3 m/S 760 mmHg 35%
    15:00 +25°C° 0 mm 3 m/S 759 mmHg 31%
    16:00 +24°C° 0 mm 3 m/S 759 mmHg 34%
    17:00 +22°C° 0 mm 3 m/S 759 mmHg 37%
    18:00 +20°C° 0 mm 3 m/S 759 mmHg 40%
    19:00 +20°C° 0 mm 2 m/S 760 mmHg 41%
    20:00 +19°C° 0 mm 2 m/S 760 mmHg 43%
    21:00 +18°C° 0 mm 2 m/S 761 mmHg 45%
    22:00 +18°C° 0 mm 2 m/S 761 mmHg 47%
    23:00 +17°C° 0 mm 2 m/S 760 mmHg 49%

    Morgen, 22 Januar, Mittwoch

    Zeit Temperatur Niederschläge Wind Luftdruck Luftfeuchtigkeit
    00:00 +16°C° 0 mm 2 m/S 760 mmHg 51%
    01:00 +16°C° 0 mm 2 m/S 760 mmHg 53%
    02:00 +16°C° 0 mm 2 m/S 760 mmHg 55%
    03:00 +15°C° 0 mm 1 m/S 760 mmHg 56%
    04:00 +15°C° 0 mm 1 m/S 760 mmHg 58%
    05:00 +14°C° 0 mm 1 m/S 760 mmHg 59%
    06:00 +14°C° 0 mm 1 m/S 760 mmHg 61%
    07:00 +15°C° 0 mm 2 m/S 760 mmHg 57%
    08:00 +17°C° 0 mm 2 m/S 761 mmHg 53%
    09:00 +18°C° 0 mm 2 m/S 762 mmHg 49%
    10:00 +19°C° 0 mm 2 m/S 761 mmHg 45%
    11:00 +21°C° 0 mm 2 m/S 761 mmHg 40%
    12:00 +24°C° 0 mm 2 m/S 761 mmHg 36%
    13:00 +25°C° 0 mm 3 m/S 760 mmHg 32%
    14:00 +26°C° 0 mm 3 m/S 759 mmHg 29%
    15:00 +26°C° 0 mm 4 m/S 759 mmHg 26%
    16:00 +25°C° 0 mm 3 m/S 758 mmHg 29%
    17:00 +22°C° 0 mm 3 m/S 758 mmHg 32%
    18:00 +21°C° 0 mm 2 m/S 758 mmHg 35%
    19:00 +20°C° 0 mm 2 m/S 758 mmHg 37%
    20:00 +19°C° 0 mm 2 m/S 759 mmHg 39%
    21:00 +19°C° 0 mm 2 m/S 759 mmHg 41%
    22:00 +18°C° 0 mm 2 m/S 759 mmHg 42%
    23:00 +18°C° 0 mm 2 m/S 759 mmHg 44%

    übermorgen, 23 Januar, Donnerstag

    Zeit Temperatur Niederschläge Wind Luftdruck Luftfeuchtigkeit
    00:00 +17°C° 0 mm 2 m/S 758 mmHg 46%
    01:00 +17°C° 0 mm 2 m/S 758 mmHg 48%
    02:00 +16°C° 0 mm 2 m/S 758 mmHg 49%
    03:00 +16°C° 0 mm 2 m/S 758 mmHg 51%
    04:00 +15°C° 0 mm 2 m/S 758 mmHg 53%
    05:00 +15°C° 0 mm 2 m/S 758 mmHg 55%
    06:00 +14°C° 0 mm 2 m/S 758 mmHg 57%
    07:00 +15°C° 0 mm 2 m/S 759 mmHg 55%
    08:00 +17°C° 0 mm 2 m/S 759 mmHg 53%
    09:00 +18°C° 0 mm 3 m/S 760 mmHg 50%
    10:00 +20°C° 0 mm 3 m/S 760 mmHg 46%
    11:00 +22°C° 0 mm 3 m/S 759 mmHg 42%
    12:00 +24°C° 0 mm 3 m/S 759 mmHg 38%
    13:00 +25°C° 0 mm 4 m/S 758 mmHg 36%
    14:00 +25°C° 0 mm 4 m/S 757 mmHg 33%
    15:00 +26°C° 0 mm 5 m/S 757 mmHg 31%
    16:00 +25°C° 0 mm 4 m/S 757 mmHg 34%
    17:00 +22°C° 0 mm 4 m/S 756 mmHg 37%
    18:00 +21°C° 0 mm 3 m/S 756 mmHg 40%
    19:00 +20°C° 0 mm 3 m/S 757 mmHg 43%
    20:00 +19°C° 0 mm 3 m/S 758 mmHg 46%
    21:00 +18°C° 0 mm 3 m/S 758 mmHg 49%
    22:00 +18°C° 0 mm 3 m/S 758 mmHg 50%
    23:00 +17°C° 0 mm 2 m/S 758 mmHg 52%

    24 Januar, Freitag

    Zeit Temperatur Niederschläge Wind Luftdruck Luftfeuchtigkeit
    00:00 +17°C° 0 mm 2 m/S 758 mmHg 53%
    01:00 +16°C° 0 mm 2 m/S 758 mmHg 55%
    02:00 +15°C° 0 mm 2 m/S 758 mmHg 57%
    03:00 +15°C° 0 mm 2 m/S 757 mmHg 59%
    04:00 +14°C° 0 mm 2 m/S 758 mmHg 60%
    05:00 +14°C° 0 mm 2 m/S 758 mmHg 62%
    06:00 +13°C° 0 mm 2 m/S 758 mmHg 64%
    07:00 +13°C° 0 mm 3 m/S 759 mmHg 61%
    08:00 +14°C° 0 mm 3 m/S 759 mmHg 57%
    09:00 +16°C° 0 mm 3 m/S 760 mmHg 54%
    10:00 +18°C° 0 mm 3 m/S 760 mmHg 50%
    11:00 +20°C° 0 mm 2 m/S 759 mmHg 45%
    12:00 +21°C° 0 mm 2 m/S 759 mmHg 40%
    13:00 +23°C° 0 mm 2 m/S 758 mmHg 38%
    14:00 +24°C° 0 mm 2 m/S 757 mmHg 35%
    15:00 +24°C° 0 mm 2 m/S 757 mmHg 32%
    16:00 +23°C° 0 mm 2 m/S 756 mmHg 35%
    17:00 +21°C° 0 mm 2 m/S 756 mmHg 38%
    18:00 +20°C° 0 mm 2 m/S 756 mmHg 41%
    19:00 +19°C° 0 mm 2 m/S 757 mmHg 43%
    20:00 +19°C° 0 mm 2 m/S 758 mmHg 46%
    21:00 +18°C° 0 mm 2 m/S 758 mmHg 49%
    22:00 +17°C° 0 mm 2 m/S 758 mmHg 51%
    23:00 +17°C° 0 mm 2 m/S 758 mmHg 52%

    25 Januar, Samstag

    Zeit Temperatur Niederschläge Wind Luftdruck Luftfeuchtigkeit
    00:00 +16°C° 0 mm 2 m/S 758 mmHg 54%
    01:00 +16°C° 0 mm 2 m/S 758 mmHg 57%
    02:00 +15°C° 0 mm 2 m/S 757 mmHg 59%
    03:00 +15°C° 0 mm 2 m/S 757 mmHg 61%
    04:00 +15°C° 0 mm 2 m/S 757 mmHg 64%
    05:00 +14°C° 0 mm 2 m/S 757 mmHg 67%
    06:00 +14°C° 0 mm 1 m/S 757 mmHg 69%
    07:00 +15°C° 0 mm 2 m/S 758 mmHg 65%
    08:00 +17°C° 0 mm 2 m/S 759 mmHg 61%
    09:00 +18°C° 0 mm 2 m/S 759 mmHg 57%
    10:00 +20°C° 0 mm 2 m/S 759 mmHg 51%
    11:00 +21°C° 0 mm 2 m/S 759 mmHg 45%
    12:00 +24°C° 0 mm 2 m/S 758 mmHg 39%
    13:00 +25°C° 0 mm 2 m/S 757 mmHg 36%
    14:00 +25°C° 0 mm 1 m/S 756 mmHg 34%
    15:00 +26°C° 0 mm 1 m/S 756 mmHg 32%
    16:00 +25°C° 0 mm 1 m/S 756 mmHg 35%
    17:00 +24°C° 0 mm 1 m/S 756 mmHg 37%
    18:00 +23°C° 0 mm 1 m/S 756 mmHg 40%
    19:00 +22°C° 0 mm 1 m/S 756 mmHg 42%
    20:00 +21°C° 0 mm 1 m/S 757 mmHg 44%
    21:00 +20°C° 0 mm 1 m/S 757 mmHg 47%
    22:00 +19°C° 0 mm 2 m/S 757 mmHg 49%
    23:00 +18°C° 0 mm 2 m/S 757 mmHg 52%

    26 Januar, Sonntag

    Zeit Temperatur Niederschläge Wind Luftdruck Luftfeuchtigkeit
    00:00 +17°C° 0 mm 3 m/S 757 mmHg 55%
    01:00 +17°C° 0 mm 2 m/S 757 mmHg 57%
    02:00 +16°C° 0 mm 2 m/S 756 mmHg 60%
    03:00 +16°C° 0 mm 2 m/S 756 mmHg 62%
    04:00 +16°C° 0 mm 2 m/S 756 mmHg 63%
    05:00 +15°C° 0 mm 2 m/S 756 mmHg 64%
    06:00 +15°C° 0 mm 2 m/S 756 mmHg 65%
    07:00 +16°C° 0 mm 2 m/S 757 mmHg 61%
    08:00 +17°C° 0 mm 2 m/S 757 mmHg 57%
    09:00 +19°C° 0 mm 2 m/S 758 mmHg 52%
    10:00 +20°C° 0 mm 2 m/S 758 mmHg 48%
    11:00 +23°C° 0 mm 2 m/S 757 mmHg 43%
    12:00 +25°C° 0 mm 2 m/S 757 mmHg 38%
    13:00 +25°C° 0 mm 1 m/S 756 mmHg 36%
    14:00 +26°C° 0 mm 1 m/S 756 mmHg 33%
    15:00 +25°C° 0 mm 0 m/S 755 mmHg 31%
    16:00 +25°C° 0 mm 1 m/S 755 mmHg 33%
    17:00 +24°C° 0 mm 1 m/S 755 mmHg 35%
    18:00 +23°C° 0 mm 1 m/S 755 mmHg 37%
    19:00 +22°C° 0 mm 1 m/S 755 mmHg 39%
    20:00 +22°C° 0 mm 1 m/S 756 mmHg 41%
    21:00 +20°C° 0 mm 2 m/S 756 mmHg 43%
    22:00 +19°C° 0 mm 2 m/S 756 mmHg 47%
    23:00 +19°C° 0 mm 2 m/S 756 mmHg 51%
    Mehr zeigen